Lid_Strength_Index
-1 -2 -1 -1 1 1 0 -1 -1 -0 1 0 1 1 2 2 2 6 8 3 1 -1 -0 3 3 3 4 5 5 7 11 14 12 12 11 10 11 10 9 9 7 6 7 5 3
-2 -2 -2 -1 -2 -0 -0 -1 -2 -1 -1 -1 0 0 1 1 5 7 4 1 -0 -1 4 4 5 4 8 7 7 8 12 11 9 9 10 10 11 10 11 10 8 7 5 4 4
-2 -2 -2 -1 -2 -1 -1 -0 -2 -2 -2 0 1 1 0 0 9 11 -0 -1 -0 0 3 4 4 5 8 8 9 9 11 9 9 8 8 9 10 9 10 11 10 8 7 5 5
-1 -2 -2 -2 -1 -2 -2 -1 -1 -1 -1 1 1 1 -0 3 16 4 -2 -2 -2 1 4 5 5 8 9 10 8 12 9 8 8 8 8 9 8 8 10 9 8 8 5 4 5
-1 -1 -2 -2 -2 -2 -2 -2 -2 -2 -1 -1 1 1 3 8 9 3 -1 -1 0 2 4 5 7 8 10 9 9 11 9 8 8 8 8 8 9 9 9 8 7 5 5 5 4
-2 -1 -1 -1 -2 -2 -2 -1 -2 -1 -2 -1 -1 -0 6 15 7 4 2 1 1 2 4 4 6 6 8 9 10 9 9 9 8 8 8 9 9 8 7 8 8 7 5 5 5
-1 -1 -0 -1 -2 -2 -2 -2 -2 -2 -2 -1 -1 2 5 10 3 5 4 3 1 2 4 3 4 6 7 9 7 8 11 10 9 8 9 9 10 10 8 7 8 8 8 7 5
-1 -1 -1 -1 -1 -2 -2 -2 -1 -2 -2 -1 -1 4 11 4 3 4 4 2 2 1 2 3 3 5 7 6 8 11 11 14 10 9 8 9 14 10 8 8 8 8 9 9 8
-2 -2 -1 -1 -1 -1 -1 -2 -1 -1 -2 -1 2 7 9 4 6 5 4 3 3 2 3 2 4 7 8 11 13 12 16 14 12 8 10 10 13 9 9 10 10 10 10 9 9
-1 -2 -2 -1 -2 -2 -1 -1 -1 -1 -0 1 2 7 6 7 6 5 4 4 4 5 6 7 7 10 10 12 17 15 16 15 15 11 11 12 13 10 9 10 10 10 9 9 9
-1 -1 -2 -1 -1 -2 -1 2 4 5 3 7 7 7 6 5 4 6 3 4 5 7 11 9 12 14 12 11 11 12 15 15 12 9 12 12 13 12 10 11 11 11 10 9 8
-1 -1 -1 -1 -2 -2 0 4 4 4 8 5 5 7 5 4 7 6 3 7 8 11 9 11 13 11 9 10 11 12 15 15 11 10 12 12 13 11 10 10 10 10 10 10 9
-1 -1 -1 -1 -1 -0 2 3 1 2 8 7 5 6 7 6 8 7 5 6 9 11 11 13 12 9 10 12 12 12 13 14 14 11 12 14 16 14 12 12 11 10 9 9 9
-1 -1 -1 -2 1 1 3 1 1 2 12 11 8 6 6 6 9 5 5 6 10 11 11 12 10 10 11 13 12 15 11 12 13 14 17 14 20 17 14 13 12 11 11 11 11
-1 -1 -1 -2 2 4 2 1 2 3 20 9 8 4 7 9 9 9 4 7 11 11 11 14 12 12 12 12 10 13 10 11 13 14 17 18 18 18 16 15 13 12 12 12 11
-1 -1 -1 0 1 1 1 2 3 13 19 12 8 9 9 9 9 8 8 6 8 11 12 13 11 11 12 10 9 9 11 12 13 14 19 17 18 20 17 15 14 13 12 11 10
-1 -1 -0 -0 4 0 1 4 14 17 10 13 12 10 10 11 10 10 10 11 13 16 16 13 12 11 10 12 11 11 14 20 21 20 21 18 18 18 14 13 14 12 11 12 11
-1 -1 -0 0 -0 -0 2 10 17 13 13 10 10 10 12 10 10 10 11 13 11 14 16 17 18 12 10 11 13 12 13 19 24 22 21 17 19 17 13 11 11 11 11 11 12
-1 1 1 1 -0 0 7 15 15 12 11 11 10 13 13 11 11 11 12 12 10 12 16 17 17 12 11 10 9 13 15 12 17 18 21 19 17 14 13 12 12 12 11 11 12
2 3 3 -0 -0 3 10 13 14 10 10 10 14 11 14 13 13 12 13 10 10 9 11 13 17 13 11 10 10 11 10 16 15 22 23 20 19 18 15 14 13 13 11 13 11
3 7 2 -0 1 7 13 12 11 9 9 12 13 13 11 13 12 13 13 11 8 9 9 11 13 14 11 13 13 13 14 13 13 16 20 23 20 15 14 13 13 12 12 12 10
4 10 2 1 9 9 12 11 8 10 8 10 11 11 12 11 13 13 13 11 8 8 12 10 12 16 14 11 10 10 13 13 17 19 17 17 18 14 14 13 12 12 12 12 10
7 7 2 3 12 12 10 10 10 9 9 10 11 10 10 11 14 12 11 8 8 9 11 10 13 18 17 13 12 13 11 11 12 13 16 18 17 12 13 12 11 11 11 10 10
7 11 7 6 8 10 13 11 11 8 9 9 10 9 11 12 11 12 11 9 8 8 7 8 12 14 17 15 13 14 13 11 13 16 15 15 14 13 12 12 10 10 10 10 10
8 10 9 11 10 10 11 11 12 12 9 8 10 10 11 13 12 12 10 10 9 7 8 9 15 13 12 12 12 13 13 12 14 13 15 13 13 11 11 10 10 10 9 9 10
9 10 9 9 8 10 10 12 11 10 10 11 11 10 10 12 11 12 11 11 11 9 10 9 15 14 15 12 12 14 13 12 12 12 12 12 12 9 10 10 11 10 10 9 9
7 9 9 8 9 10 12 12 10 10 9 9 9 10 11 10 9 9 8 9 9 10 11 11 13 14 16 13 14 16 13 12 12 11 11 14 11 8 9 9 9 8 9 8 8